Home   Weather   Regina   Past weeks

Flag for Canada Past Weather in Regina, Saskatchewan, Canada — Yesterday and Last 2 Weeks

Now
-11 °F

Passing clouds.


Feels Like: -25 °F
Forecast: -20 / -8 °F
Wind: 6 mph from Northwest

Location: Regina Weather Station

Current Time: Dec 9, 2016 at 11:46:13 am

Latest Report: Dec 9, 2016 at 11:00 am


Visibility: 15 mi

Pressure: 30.78 "Hg (28.44 "Hg at 577m altitude)

Humidity: 76%

Dew Point: -17 °F

Location of ReginaLocation

Past Weather in Regina — Graph

°F

Regina Temperature Yesterday

Maximum temperature yesterday: 0 °F (at 12:00 am)
Minimum temperature yesterday: -13 °F (at 10:00 pm)
Average temperature yesterday: -5 °F

High & Low Weather Summary for the Past Weeks

 TemperatureHumidityPressure
High43 °F (Nov 25, 2:00 pm)100% (Nov 24, 7:00 pm)30.82 "Hg (Nov 24, 7:00 pm)
Low-18 °F (Dec 9, 7:00 am)57% (Nov 25, 3:00 pm)29.33 "Hg (Nov 28, 5:00 am)
Average20 °F87%30.02 "Hg
* Reported Nov 24 10:00 am — Dec 9 10:00 am, Regina, Weather by CustomWeather, © 2016

Note: Actual official high and low records may vary slightly from our data, if they occured in-between our weather recording intervals... More about our weather records

Advertising

Regina Weather History for the Previous 24 Hours

Scroll right to see more
 ConditionsComfort  
Time TempWeatherWind HumidityBarometerVisibility
10:00 am
Fri, Dec 9
-15 °FSunny.2 mph76%30.79 "Hg12 mi
9:00 am-18 °FSunny.6 mph75%30.78 "Hg15 mi
8:00 am-17 °FPassing clouds.6 mph76%30.77 "Hg15 mi
7:00 am-18 °FClear.7 mph75%30.78 "Hg15 mi
6:00 am-17 °FClear.7 mph76%30.78 "Hg15 mi
5:00 am-17 °FClear.5 mph83%30.77 "Hg15 mi
4:00 am-15 °FClear.5 mph76%30.76 "Hg15 mi
3:00 am-17 °FClear.5 mph76%30.76 "Hg15 mi
2:00 am-17 °FClear.6 mph76%30.76 "Hg15 mi
1:00 am-13 °FClear.3 mph76%30.76 "Hg15 mi
12:00 am-13 °FClear.6 mph83%30.76 "Hg15 mi
11:00 pm
Thu, Dec 8
-11 °FClear.5 mph76%30.76 "Hg15 mi
10:00 pm-13 °FPassing clouds.6 mph83%30.76 "Hg15 mi
9:00 pm-11 °FPassing clouds.5 mph84%30.76 "Hg15 mi
8:00 pm-9 °FPassing clouds.5 mph77%30.77 "Hg15 mi
7:00 pm-8 °FPassing clouds.8 mph77%30.78 "Hg15 mi
6:00 pm-6 °FPassing clouds.5 mph84%30.79 "Hg15 mi
5:00 pm-4 °FPassing clouds.9 mph77%30.79 "Hg15 mi
4:00 pm0 °FPassing clouds.12 mph71%30.78 "Hg15 mi
3:00 pm0 °FPassing clouds.12 mph71%30.79 "Hg15 mi
2:00 pm0 °FPassing clouds.10 mph71%30.79 "Hg15 mi
1:00 pm0 °FScattered clouds.13 mph71%30.81 "Hg15 mi
12:00 pm-2 °FPartly sunny.15 mph77%30.81 "Hg15 mi
11:00 am-2 °FLight snow. Partly sunny.15 mph77%30.82 "Hg15 mi
Weather by CustomWeather, © 2016

See weather overviewHow to use our weather pages